Content
SEND FEEDBACK

Daily
Averages
Monthly
Summary
Austria

INNSBRUCK, AUSTRIA


Home > Europe > Austria
Elevation: 1994 feet     Latitude: 47 15N     Longitude: 011 20E

WEATHER
 
SELECT A DAY
Number of Records: 311,500;   Date Range: 7/1/96 - 8/10/14
 
SHARE

PRINT THIS DATA

[ ← Previous Day ]
WEATHER ALMANAC - MARCH 23, 2013
[ Next Day → ]
[ °C ]   °F
Weather ElementAverageHighLow
Temperature39.3 °F50 °F (1:20 pm)32 °F (4:50 am)
Dewpoint30 °F33.8 °F (1:20 pm)26.6 °F (7:50 pm)
Humidity68.9 %93 % (4:50 am)41 % (4:00 pm)
Barometer29.80 in29.91 in (10:00 pm)29.71 in (2:20 pm)
Wind Speed6.3 mph12.7 mph (2:50 pm)
Weather ElementAverage
Visibility7.2 mi
Wind DirectionENE (60.9 °)

Weather ElementTotal
Precipitation---
Heating Degree Days24 (Base 65)
Averaged from 55 records on March 23, 2013
WEATHER CONDITIONS BREAKOUT
WIND DIRECTION BREAKOUT
WEATHER BY HOUR - MARCH 23, 2013
[ °C ]   °F
Local TimeTemperatureDewpointHumidityBarometerVisibilityWind DirectionWind SpeedGust SpeedPrecipitationEventsConditions
12:50 AM39.2 °F32.0 °F75 %29.83 in6.2 miVariable1.2 mphOvercast
1:00 AM40.0 °F31.0 °F61 %29.87 in8.0 mi°2.2 mph
1:20 AM39.2 °F32.0 °F75 %29.83 in6.2 miVariable1.2 mphOvercast
1:50 AM39.2 °F32.0 °F75 %29.80 in6.2 miVariable1.2 mphMostly Cloudy
2:20 AM39.2 °F32.0 °F75 %29.80 in6.2 miVariable1.2 mphOvercast
2:50 AM37.4 °F32.0 °F81 %29.80 in6.2 miVariable1.2 mphMostly Cloudy
3:20 AM35.6 °F30.2 °F81 %29.80 in6.2 miVariable2.3 mphPartly Cloudy
3:50 AM33.8 °F30.2 °F87 %29.80 in6.2 miVariable1.2 mphPartly Cloudy
4:00 AM35.0 °F30.0 °F75 %29.88 in9.0 mi°2.2 mphScattered Clouds
4:20 AM33.8 °F30.2 °F87 %29.80 in6.2 miVariable1.2 mphPartly Cloudy
4:50 AM32.0 °F30.2 °F93 %29.80 in6.2 miVariable1.2 mphPartly Cloudy
5:20 AM32.0 °F28.4 °F87 %29.80 in6.2 miVariable2.3 mphPartly Cloudy
5:50 AM33.8 °F30.2 °F87 %29.80 in6.2 miVariable1.2 mphScattered Clouds
6:20 AM32.0 °F30.2 °F93 %29.80 inVariable1.2 mphClear
6:50 AM33.8 °F28.4 °F81 %29.80 inEast (90°)4.6 mphClear
7:00 AM33.0 °F29.0 °F79 %29.90 in9.0 miEast (90°)4.5 mphScattered Clouds
7:20 AM32.0 °F28.4 °F87 %29.83 inENE (60°)6.9 mphClear
7:50 AM35.6 °F30.2 °F81 %29.80 inEast (90°)5.8 mphClear
8:20 AM35.6 °F30.2 °F81 %29.80 inEast (90°)5.8 mphClear
8:50 AM37.4 °F30.2 °F75 %29.80 inEast (100°)3.5 mphClear
9:20 AM37.4 °F30.2 °F75 %29.80 in6.2 miEast (80°)4.6 mphScattered Clouds
9:50 AM39.2 °F30.2 °F70 %29.80 in6.2 miENE (70°)3.5 mphMostly Cloudy
10:00 AM39.0 °F30.0 °F61 %29.87 in12.0 miENE (70°)4.5 mphMostly Cloudy
10:20 AM39.2 °F30.2 °F70 %29.80 in6.2 miEast (80°)5.8 mphMostly Cloudy
10:50 AM42.8 °F32.0 °F66 %29.80 in6.2 miENE (70°)9.2 mphScattered Clouds
11:20 AM42.8 °F32.0 °F66 %29.77 in6.2 miESE (120°)5.8 mphMostly Cloudy
11:50 AM44.6 °F32.0 °F61 %29.77 in6.2 miEast (100°)5.8 mphScattered Clouds
12:20 PM46.4 °F32.0 °F57 %29.77 in6.2 miEast (90°)6.9 mphMostly Cloudy
12:50 PM48.2 °F32.0 °F54 %29.74 in6.2 miEast (80°)6.9 mphMostly Cloudy
1:00 PM48.0 °F32.0 °F42 %29.78 in19.0 miEast (80°)6.7 mphScattered Clouds
1:20 PM50.0 °F33.8 °F54 %29.74 in6.2 miENE (70°)11.5 mphMostly Cloudy
1:50 PM50.0 °F32.0 °F50 %29.74 in6.2 miENE (70°)11.5 mphMostly Cloudy
2:20 PM50.0 °F32.0 °F50 %29.71 in6.2 miENE (70°)11.5 mphMostly Cloudy
2:50 PM48.2 °F32.0 °F54 %29.71 in6.2 miEast (80°)12.7 mphMostly Cloudy
3:20 PM48.2 °F32.0 °F54 %29.71 in6.2 miEast (80°)11.5 mphMostly Cloudy
3:50 PM48.2 °F32.0 °F54 %29.74 in6.2 miENE (70°)11.5 mphMostly Cloudy
4:00 PM48.0 °F32.0 °F41 %29.75 in25.0 miENE (70°)11.2 mphScattered Clouds
4:20 PM46.4 °F32.0 °F57 %29.74 in6.2 miENE (70°)11.5 mphMostly Cloudy
4:50 PM44.6 °F30.2 °F57 %29.74 in6.2 miENE (70°)12.7 mphMostly Cloudy
5:20 PM44.6 °F30.2 °F57 %29.74 in6.2 miEast (80°)11.5 mphMostly Cloudy
5:50 PM42.8 °F30.2 °F61 %29.77 in6.2 miEast (80°)10.4 mphMostly Cloudy
6:20 PM41.0 °F28.4 °F61 %29.77 in6.2 miEast (80°)12.7 mphMostly Cloudy
6:50 PM39.2 °F28.4 °F65 %29.77 in6.2 miEast (80°)10.4 mphMostly Cloudy
7:00 PM39.0 °F28.0 °F54 %29.85 in12.0 miEast (80°)11.2 mphScattered Clouds
7:20 PM37.4 °F28.4 °F70 %29.80 in6.2 miEast (80°)9.2 mphMostly Cloudy
7:50 PM37.4 °F26.6 °F65 %29.80 in6.2 miEast (90°)9.2 mphMostly Cloudy
8:20 PM37.4 °F26.6 °F65 %29.83 in6.2 miEast (80°)8.1 mphMostly Cloudy
8:50 PM35.6 °F26.6 °F70 %29.83 in6.2 miENE (60°)8.1 mphMostly Cloudy
9:20 PM35.6 °F26.6 °F70 %29.83 in6.2 miEast (90°)3.5 mphScattered Clouds
9:50 PM33.8 °F26.6 °F75 %29.83 in6.2 miENE (60°)5.8 mphMostly Cloudy
10:00 PM34.0 °F27.0 °F67 %29.91 in7.0 miENE (60°)6.7 mphScattered Clouds
10:20 PM33.8 °F26.6 °F75 %29.83 in6.2 miEast (80°)5.8 mphMostly Cloudy
10:50 PM33.8 °F26.6 °F75 %29.83 in6.2 miEast (90°)5.8 mphMostly Cloudy
11:20 PM33.8 °F26.6 °F75 %29.83 in6.2 miENE (70°)6.9 mphMostly Cloudy
11:50 PM33.8 °F26.6 °F75 %29.83 in5.6 miENE (60°)4.6 mphMostly Cloudy
Hourly data recorded from LOWI, located miles away from Innsbruck, Austria







STORIES FROM OUR PARTNERS